User: anonymous   Login
Location: Newark
(38.6492°N, 88.9193°W)
Time: 05:47:23
(UTC+00:00)
Language:

LightSail 2 - Orbit

View from above orbital plane
View from above orbital plane
View from above satellite
View from above satellite

Ground track
Ground track

The orbit data is extracted from the following two-line orbital elements,

1 44420U 19036AC  19349.66310568  .00004306  00000-0  95130-3 0  9998
2 44420  24.0108 193.7905 0023953 270.4659  89.3128 14.53899279 23373
Epoch (UTC): 15 December 2019 15:54:52
Eccentricity: 0.0023953
inclination: 24.0108°
perigee height: 696 km
apogee height: 730 km
right ascension of ascending node: 193.7905°
argument of perigee: 270.4659°
revolutions per day: 14.53899279
mean anomaly at epoch: 89.3128°
orbit number at epoch: 2337

The dashed part of the orbit path shows where the satellite is in the earth's shadow,  

DLR